K6NC Weather Reports


Display with metric or nautical units.
time (UTC)temp
F
wind
direction
speed
MPH
gust
MPH
rain 1hr
in
rain 24hr
in
rain mn
in
humidity
%
barometer
mb
20260831103039 57 0 0.0 0.0 0.00 0.00 0.00 81 1010.6
20260831102517 56 0 0.0 0.0 0.00 0.00 0.00 79 1010.6
20260831102017 56 0 0.0 0.0 0.00 0.00 0.00 80 1010.6
20260831101545 56 0 0.0 0.0 0.00 0.00 0.00 81 1010.5
20260831101018 56 0 0.0 0.0 0.00 0.00 0.00 81 1010.4
20260831100518 56 0 0.0 0.0 0.00 0.00 0.00 82 1010.4
20260831100034 55 0 0.0 0.0 0.00 0.00 0.00 81 1010.4
20260831095518 55 0 0.0 0.0 0.00 0.00 0.00 82 1010.4
20260831095023 55 0 0.0 0.0 0.00 0.00 0.00 83 1010.4
20260831094541 55 0 0.0 0.0 0.00 0.00 0.00 81 1010.5
20260831094019 56 0 0.0 0.0 0.00 0.00 0.00 79 1010.5
20260831093518 56 0 0.0 0.0 0.00 0.00 0.00 81 1010.4
20260831093037 57 0 0.0 0.0 0.00 0.00 0.00 80 1010.5
20260831092518 57 0 0.0 0.0 0.00 0.00 0.00 81 1010.4
20260831092019 57 0 0.0 0.0 0.00 0.00 0.00 80 1010.5
20260831091546 57 0 0.0 0.0 0.00 0.00 0.00 81 1010.6
20260831091019 57 0 0.0 0.0 0.00 0.00 0.00 80 1010.5
20260831090518 58 0 0.0 0.0 0.00 0.00 0.00 80 1010.5
20260831090037 58 0 0.0 0.0 0.00 0.00 0.00 80 1010.6
20260831085522 58 0 0.0 0.0 0.00 0.00 0.00 79 1010.5
20260831085020 58 0 0.0 0.0 0.00 0.00 0.00 76 1010.5
20260831084537 59 0 0.0 0.0 0.00 0.00 0.00 75 1010.6
20260831084020 59 0 0.0 0.0 0.00 0.00 0.00 74 1010.6
20260831083519 59 0 0.0 0.0 0.00 0.00 0.00 73 1010.5
20260831083037 61 0 0.0 0.0 0.00 0.00 0.00 71 1010.5
20260831082516 61 0 0.0 0.0 0.00 0.00 0.00 71 1010.4
20260831082018 61 0 0.0 0.0 0.00 0.00 0.00 71 1010.5
20260831081536 61 0 0.0 0.0 0.00 0.00 0.00 70 1010.4
20260831081018 62 0 0.0 0.0 0.00 0.00 0.00 70 1010.6
20260831080519 62 0 0.0 0.0 0.00 0.00 0.00 70 1010.5
20260831080037 62 0 0.0 0.0 0.00 0.00 0.00 70 1010.5
20260831075518 61 0 0.0 0.0 0.00 0.00 0.00 71 1010.6
20260831075019 61 0 0.0 0.0 0.00 0.00 0.00 70 1010.6
20260831074541 61 0 0.0 0.0 0.00 0.00 0.00 71 1010.6
20260831074017 61 0 0.0 0.0 0.00 0.00 0.00 71 1010.5
20260831073516 62 0 0.0 0.0 0.00 0.00 0.00 70 1010.6
20260831073036 62 0 0.0 0.0 0.00 0.00 0.00 71 1010.6
20260831072516 62 0 0.0 0.0 0.00 0.00 0.00 70 1010.6
20260831072015 62 0 0.0 0.0 0.00 0.00 0.00 69 1010.6
20260831071540 62 0 0.0 0.0 0.00 0.00 0.00 70 1010.5
20260831071018 62 0 0.0 0.0 0.00 0.00 0.00 69 1010.6
20260831070520 62 0 0.0 0.0 0.00 0.00 0.00 69 1010.5
20260831070036 62 0 0.0 0.0 0.00 0.00 0.00 68 1010.5
20260831065518 63 0 0.0 0.0 0.00 0.00 0.00 68 1010.6
20260831065022 63 0 0.0 0.0 0.00 0.00 0.00 68 1010.6
20260831064536 63 0 0.0 0.0 0.00 0.00 0.00 68 1010.6
20260831064017 63 0 0.0 0.0 0.00 0.00 0.00 67 1010.6
20260831063518 63 0 0.0 0.0 0.00 0.00 0.00 69 1010.6
20260831063038 63 0 0.0 0.0 0.00 0.00 0.00 68 1010.6
20260831062518 63 0 0.0 0.0 0.00 0.00 0.00 68 1010.7
20260831062019 63 0 0.0 0.0 0.00 0.00 0.00 68 1010.7
20260831061537 63 0 0.0 0.0 0.00 0.00 0.00 68 1010.7
20260831061021 63 0 0.0 0.0 0.00 0.00 0.00 67 1010.7
20260831060518 63 0 0.0 0.0 0.00 0.00 0.00 67 1010.7
20260831060042 64 0 0.0 0.0 0.00 0.00 0.00 67 1010.7
20260831055523 63 0 0.0 0.0 0.00 0.00 0.00 67 1010.7
20260831055021 64 0 0.0 0.0 0.00 0.00 0.00 67 1010.6
20260831054537 64 0 0.0 0.0 0.00 0.00 0.00 67 1010.7
20260831054023 64 0 0.0 0.0 0.00 0.00 0.00 66 1010.6
20260831053519 64 0 0.0 0.0 0.00 0.00 0.00 65 1010.6
20260831053039 66 0 0.0 5.0 0.00 0.00 0.00 62 1010.5
20260831052518 67 0 0.0 7.0 0.00 0.00 0.00 63 1010.4
20260831052018 67 228 3.0 7.0 0.00 0.00 0.00 63 1010.4
20260831051543 67 238 4.0 9.0 0.00 0.00 0.00 62 1010.3
20260831051018 67 240 5.0 9.0 0.00 0.00 0.00 61 1010.3
20260831050519 68 232 4.0 10.0 0.00 0.00 0.00 61 1010.4
20260831050040 68 236 5.0 10.0 0.00 0.00 0.00 61 1010.4
20260831045519 68 237 5.0 8.0 0.00 0.00 0.00 60 1010.3
20260831045018 68 252 5.0 10.0 0.00 0.00 0.00 60 1010.4
20260831044539 69 232 5.0 10.0 0.00 0.00 0.00 59 1010.3
20260831044019 69 247 6.0 14.0 0.00 0.00 0.00 59 1010.3
20260831043521 69 257 8.0 14.0 0.00 0.00 0.00 58 1010.2
20260831043039 70 244 9.0 14.0 0.00 0.00 0.00 58 1010.1
20260831042518 70 251 6.0 13.0 0.00 0.00 0.00 58 1010.1
20260831042018 70 273 8.0 13.0 0.00 0.00 0.00 57 1010.0
20260831041549 71 246 8.0 13.0 0.00 0.00 0.00 56 1010.0
20260831041020 71 238 9.0 13.0 0.00 0.00 0.00 55 1010.0
20260831040520 71 229 8.0 13.0 0.00 0.00 0.00 55 1009.9
20260831040042 71 240 7.0 12.0 0.00 0.00 0.00 55 1009.9
20260831035518 72 242 6.0 12.0 0.00 0.00 0.00 54 1009.8
20260831035017 72 253 7.0 12.0 0.00 0.00 0.00 53 1009.7
20260831034536 73 246 8.0 11.0 0.00 0.00 0.00 52 1009.7
20260831034018 73 247 8.0 11.0 0.00 0.00 0.00 51 1009.6
20260831033520 73 252 6.0 10.0 0.00 0.00 0.00 50 1009.7
20260831033037 74 248 5.0 9.0 0.00 0.00 0.00 49 1009.6
20260831032523 74 254 5.0 8.0 0.00 0.00 0.00 49 1009.6
20260831032020 74 243 4.0 8.0 0.00 0.00 0.00 48 1009.5
20260831031540 75 246 4.0 8.0 0.00 0.00 0.00 47 1009.5
20260831031019 75 248 5.0 8.0 0.00 0.00 0.00 46 1009.4
20260831030516 76 260 5.0 8.0 0.00 0.00 0.00 46 1009.5
20260831030042 76 259 4.0 10.0 0.00 0.00 0.00 45 1009.4
20260831025519 77 242 5.0 10.0 0.00 0.00 0.00 44 1009.4
20260831025019 77 251 5.0 8.0 0.00 0.00 0.00 43 1009.4
20260831024541 78 262 5.0 9.0 0.00 0.00 0.00 42 1009.4
20260831024020 78 251 5.0 9.0 0.00 0.00 0.00 41 1009.4
20260831023520 79 247 6.0 9.0 0.00 0.00 0.00 40 1009.4
20260831023036 79 245 5.0 10.0 0.00 0.00 0.00 39 1009.3
20260831022519 80 248 4.0 10.0 0.00 0.00 0.00 38 1009.3
20260831022019 81 248 6.0 9.0 0.00 0.00 0.00 38 1009.3
20260831021539 81 248 4.0 10.0 0.00 0.00 0.00 37 1009.3
20260831021017 82 243 5.0 10.0 0.00 0.00 0.00 36 1009.4
20260831020518 82 252 6.0 10.0 0.00 0.00 0.00 36 1009.3
20260831020040 83 248 6.0 10.0 0.00 0.00 0.00 35 1009.4
20260831015517 83 240 6.0 10.0 0.00 0.00 0.00 35 1009.3
20260831015021 84 249 6.0 10.0 0.00 0.00 0.00 35 1009.3
20260831014537 84 249 5.0 10.0 0.00 0.00 0.00 34 1009.4
20260831014018 85 242 7.0 10.0 0.00 0.00 0.00 34 1009.4
20260831013520 85 238 7.0 11.0 0.00 0.00 0.00 34 1009.3
20260831013040 85 240 7.0 12.0 0.00 0.00 0.00 34 1009.3
20260831012518 85 248 8.0 12.0 0.00 0.00 0.00 33 1009.4
20260831012018 86 236 7.0 10.0 0.00 0.00 0.00 34 1009.4
20260831011539 86 254 6.0 11.0 0.00 0.00 0.00 33 1009.4
20260831011020 87 224 7.0 11.0 0.00 0.00 0.00 33 1009.3
20260831010517 87 248 7.0 11.0 0.00 0.00 0.00 33 1009.3
20260831010036 87 217 5.0 11.0 0.00 0.00 0.00 33 1009.3
20260831005518 88 265 7.0 10.0 0.00 0.00 0.00 33 1009.2
20260831005019 87 258 6.0 10.0 0.00 0.00 0.00 32 1009.3
20260831004536 88 240 6.0 9.0 0.00 0.00 0.00 31 1009.3
20260831004020 88 222 5.0 9.0 0.00 0.00 0.00 31 1009.4
20260831003519 89 260 6.0 9.0 0.00 0.00 0.00 32 1009.3
20260831003041 89 220 5.0 9.0 0.00 0.00 0.00 31 1009.4
20260831002518 89 254 5.0 9.0 0.00 0.00 0.00 30 1009.4
20260831002018 89 209 2.0 7.0 0.00 0.00 0.00 29 1009.4
20260831001538 88 238 3.0 7.0 0.00 0.00 0.00 30 1009.5
20260831001018 88 284 4.0 10.0 0.00 0.00 0.00 30 1009.5
20260831000518 89 273 7.0 10.0 0.00 0.00 0.00 30 1009.6
20260831000037 89 239 3.0 8.0 0.00 0.00 0.00 29 1009.7
20260830235520 88 267 3.0 9.0 0.00 0.00 0.00 29 1009.7
20260830235020 88 246 4.0 9.0 0.00 0.00 0.00 29 1009.7
20260830234546 89 273 4.0 8.0 0.00 0.00 0.00 32 1009.8
20260830234018 89 181 4.0 9.0 0.00 0.00 0.00 28 1009.8
20260830233517 89 230 4.0 11.0 0.00 0.00 0.00 32 1009.8
20260830233037 89 243 5.0 11.0 0.00 0.00 0.00 30 1009.8
20260830232519 89 242 4.0 8.0 0.00 0.00 0.00 28 1009.9
20260830232019 88 217 4.0 8.0 0.00 0.00 0.00 30 1009.9
20260830231539 89 202 1.0 8.0 0.00 0.00 0.00 32 1009.9
20260830231020 88 295 3.0 8.0 0.00 0.00 0.00 32 1010.0
20260830230522 89 0 2.0 10.0 0.00 0.00 0.00 29 1010.0
20260830230044 90 229 5.0 11.0 0.00 0.00 0.00 30 1010.1
20260830225517 90 241 7.0 11.0 0.00 0.00 0.00 32 1010.1
20260830225018 90 269 5.0 10.0 0.00 0.00 0.00 33 1010.1
20260830224547 89 204 5.0 10.0 0.00 0.00 0.00 33 1010.3
20260830224016 89 231 4.0 14.0 0.00 0.00 0.00 33 1010.2
20260830223518 89 196 4.0 14.0 0.00 0.00 0.00 32 1010.3
20260830223036 88 240 3.0 14.0 0.00 0.00 0.00 33 1010.4
20260830222519 88 250 6.0 8.0 0.00 0.00 0.00 34 1010.5
20260830222019 88 255 2.0 10.0 0.00 0.00 0.00 35 1010.6
20260830221540 88 286 5.0 10.0 0.00 0.00 0.00 33 1010.6
20260830221020 88 269 6.0 10.0 0.00 0.00 0.00 33 1010.8
20260830220516 88 248 6.0 10.0 0.00 0.00 0.00 33 1010.8
20260830220040 88 237 5.0 10.0 0.00 0.00 0.00 34 1010.9
20260830215518 87 342 2.0 9.0 0.00 0.00 0.00 35 1010.9
20260830215020 87 250 4.0 9.0 0.00 0.00 0.00 34 1011.0
20260830214537 86 262 2.0 10.0 0.00 0.00 0.00 37 1011.1
20260830214020 87 309 3.0 10.0 0.00 0.00 0.00 37 1011.1
20260830213518 87 284 5.0 9.0 0.00 0.00 0.00 37 1011.1
20260830213039 86 243 5.0 9.0 0.00 0.00 0.00 36 1011.3
20260830212518 86 22 3.0 12.0 0.00 0.00 0.00 37 1011.4
20260830212019 87 254 6.0 12.0 0.00 0.00 0.00 37 1011.5
20260830211535 86 292 6.0 9.0 0.00 0.00 0.00 40 1011.6
20260830211018 85 323 3.0 9.0 0.00 0.00 0.00 40 1011.7
20260830210520 85 290 2.0 7.0 0.00 0.00 0.00 40 1011.7
20260830210037 84 0 2.0 7.0 0.00 0.00 0.00 41 1011.7
20260830205520 84 355 3.0 8.0 0.00 0.00 0.00 41 1011.8
20260830205019 84 0 2.0 9.0 0.00 0.00 0.00 41 1011.8
20260830204540 84 227 5.0 9.0 0.00 0.00 0.00 40 1011.9
20260830204016 84 325 2.0 14.0 0.00 0.00 0.00 44 1011.9
20260830203518 84 252 7.0 14.0 0.00 0.00 0.00 41 1012.1
20260830203039 84 259 3.0 10.0 0.00 0.00 0.00 43 1012.1
20260830202519 84 259 2.0 10.0 0.00 0.00 0.00 43 1012.2
20260830202022 83 229 5.0 10.0 0.00 0.00 0.00 45 1012.2
20260830201542 84 280 5.0 10.0 0.00 0.00 0.00 43 1012.2
20260830201019 83 236 4.0 10.0 0.00 0.00 0.00 44 1012.2
20260830200517 83 290 4.0 9.0 0.00 0.00 0.00 45 1012.2
20260830200035 81 313 2.0 9.0 0.00 0.00 0.00 46 1012.3
20260830195517 82 275 4.0 10.0 0.00 0.00 0.00 44 1012.3
20260830195018 80 277 2.0 10.0 0.00 0.00 0.00 49 1012.3
20260830194541 81 290 5.0 10.0 0.00 0.00 0.00 45 1012.3
20260830194026 80 273 6.0 11.0 0.00 0.00 0.00 46 1012.3
20260830193516 81 302 5.0 11.0 0.00 0.00 0.00 46 1012.4
20260830193042 81 242 7.0 11.0 0.00 0.00 0.00 48 1012.5
20260830192520 80 288 2.0 11.0 0.00 0.00 0.00 48 1012.5
20260830192019 79 319 6.0 11.0 0.00 0.00 0.00 50 1012.6
20260830191540 79 293 3.0 9.0 0.00 0.00 0.00 49 1012.8
20260830191019 79 237 5.0 9.0 0.00 0.00 0.00 48 1012.9
20260830190519 79 263 1.0 9.0 0.00 0.00 0.00 52 1012.9
20260830190038 77 0 2.0 9.0 0.00 0.00 0.00 52 1012.9
20260830185516 77 263 4.0 8.0 0.00 0.00 0.00 51 1013.0
20260830185021 77 186 2.0 8.0 0.00 0.00 0.00 53 1013.1
20260830184539 78 190 4.0 8.0 0.00 0.00 0.00 51 1013.3
20260830184019 77 255 2.0 8.0 0.00 0.00 0.00 53 1013.2
20260830183519 76 252 2.0 8.0 0.00 0.00 0.00 53 1013.3
20260830183036 75 223 3.0 8.0 0.00 0.00 0.00 54 1013.1
20260830182519 74 254 2.0 8.0 0.00 0.00 0.00 56 1013.2
20260830182018 75 277 3.0 8.0 0.00 0.00 0.00 55 1013.2
20260830181536 74 276 5.0 8.0 0.00 0.00 0.00 55 1013.2
20260830181022 75 234 2.0 7.0 0.00 0.00 0.00 54 1013.1
20260830180518 74 313 1.0 6.0 0.00 0.00 0.00 57 1013.1
20260830180052 74 288 2.0 8.0 0.00 0.00 0.00 57 1013.2
20260830175517 73 286 4.0 8.0 0.00 0.00 0.00 57 1013.2
20260830175017 73 217 4.0 8.0 0.00 0.00 0.00 58 1013.3
20260830174539 73 250 3.0 8.0 0.00 0.00 0.00 57 1013.2
20260830174018 73 5 2.0 7.0 0.00 0.00 0.00 58 1013.2
20260830173515 73 298 2.0 8.0 0.00 0.00 0.00 59 1013.3
20260830173052 72 265 4.0 8.0 0.00 0.00 0.00 59 1013.2
20260830172520 72 279 3.0 6.0 0.00 0.00 0.00 60 1013.3
20260830172021 71 217 1.0 6.0 0.00 0.00 0.00 60 1013.3
20260830171539 71 219 2.0 7.0 0.00 0.00 0.00 61 1013.3
20260830171020 70 292 3.0 8.0 0.00 0.00 0.00 62 1013.2
20260830170519 70 247 3.0 8.0 0.00 0.00 0.00 62 1013.2
20260830170039 70 255 4.0 8.0 0.00 0.00 0.00 63 1013.2
20260830165521 69 272 4.0 8.0 0.00 0.00 0.00 63 1013.2
20260830165020 69 283 2.0 7.0 0.00 0.00 0.00 64 1013.2
20260830164542 69 254 2.0 8.0 0.00 0.00 0.00 65 1013.2
20260830164022 68 220 4.0 8.0 0.00 0.00 0.00 65 1013.2
20260830163518 67 228 4.0 8.0 0.00 0.00 0.00 67 1013.1
20260830163037 67 269 3.0 8.0 0.00 0.00 0.00 68 1013.1
20260830162519 66 355 3.0 7.0 0.00 0.00 0.00 67 1013.2
20260830162023 66 270 3.0 8.0 0.00 0.00 0.00 67 1013.2
20260830161537 66 228 3.0 8.0 0.00 0.00 0.00 68 1013.2
20260830161019 66 267 3.0 7.0 0.00 0.00 0.00 69 1013.2
20260830160519 65 269 2.0 7.0 0.00 0.00 0.00 70 1013.3
20260830160035 64 233 5.0 8.0 0.00 0.00 0.00 71 1013.2
20260830155517 64 244 4.0 8.0 0.00 0.00 0.00 72 1013.3
20260830155020 64 243 4.0 9.0 0.00 0.00 0.00 72 1013.3
20260830154537 63 249 4.0 9.0 0.00 0.00 0.00 73 1013.3
20260830154019 63 252 5.0 10.0 0.00 0.00 0.00 73 1013.3
20260830153519 62 221 5.0 10.0 0.00 0.00 0.00 74 1013.2
20260830153039 62 229 5.0 10.0 0.00 0.00 0.00 76 1013.2
20260830152520 61 242 6.0 10.0 0.00 0.00 0.00 77 1013.3
20260830152019 60 235 6.0 10.0 0.00 0.00 0.00 79 1013.4
20260830151537 59 225 3.0 6.0 0.00 0.00 0.00 81 1013.3
20260830151024 57 243 2.0 6.0 0.00 0.00 0.00 83 1013.3
20260830150520 56 192 2.0 4.0 0.00 0.00 0.00 85 1013.3
20260830150039 55 199 1.0 3.0 0.00 0.00 0.00 86 1013.3
20260830145518 55 232 0.0 3.0 0.00 0.00 0.00 87 1013.3
20260830145019 54 79 1.0 3.0 0.00 0.00 0.00 87 1013.2
20260830144536 53 185 0.0 3.0 0.00 0.00 0.00 87 1013.2
20260830144016 52 99 0.0 2.0 0.00 0.00 0.00 88 1013.1
20260830143521 52 0 0.0 2.0 0.00 0.00 0.00 87 1013.2
20260830143038 51 0 0.0 3.0 0.00 0.00 0.00 87 1013.2
20260830142520 51 0 0.0 3.0 0.00 0.00 0.00 87 1013.0
20260830142020 51 79 1.0 3.0 0.00 0.00 0.00 86 1013.0
20260830141550 51 0 0.0 3.0 0.00 0.00 0.00 86 1012.8
20260830141020 50 92 1.0 3.0 0.00 0.00 0.00 86 1012.8
20260830140517 50 0 0.0 2.0 0.00 0.00 0.00 85 1012.7
20260830140045 50 0 0.0 3.0 0.00 0.00 0.00 85 1012.8
20260830135524 50 0 0.0 3.0 0.00 0.00 0.00 85 1012.7
20260830135016 50 30 1.0 3.0 0.00 0.00 0.00 86 1012.6
20260830134540 50 52 1.0 2.0 0.00 0.00 0.00 85 1012.5
20260830134019 50 0 0.0 2.0 0.00 0.00 0.00 85 1012.4
20260830133519 50 0 0.0 4.0 0.00 0.00 0.00 85 1012.3
20260830133053 50 73 2.0 4.0 0.00 0.00 0.00 85 1012.2
20260830132521 50 73 2.0 4.0 0.00 0.00 0.00 85 1012.3
20260830132020 50 69 2.0 4.0 0.00 0.00 0.00 85 1012.2
20260830131536 50 74 2.0 4.0 0.00 0.00 0.00 85 1012.1
20260830131023 50 0 1.0 3.0 0.00 0.00 0.00 84 1012.0
20260830130517 50 80 1.0 4.0 0.00 0.00 0.00 83 1012.1
20260830130037 50 0 0.0 4.0 0.00 0.00 0.00 82 1012.2
20260830125519 51 81 3.0 4.0 0.00 0.00 0.00 82 1012.0
20260830125016 52 74 2.0 4.0 0.00 0.00 0.00 83 1011.9
20260830124538 52 343 0.0 3.0 0.00 0.00 0.00 84 1012.0
20260830124019 52 0 0.0 1.0 0.00 0.00 0.00 83 1011.9
20260830123522 52 0 0.0 0.0 0.00 0.00 0.00 82 1011.9
20260830123040 52 0 0.0 0.0 0.00 0.00 0.00 82 1011.9
20260830122518 52 0 0.0 0.0 0.00 0.00 0.00 82 1011.9
20260830122018 53 0 0.0 1.0 0.00 0.00 0.00 81 1011.9
20260830121539 53 0 0.0 1.0 0.00 0.00 0.00 81 1011.9
20260830121023 53 0 0.0 0.0 0.00 0.00 0.00 80 1011.9
20260830120518 53 0 0.0 1.0 0.00 0.00 0.00 81 1011.9
20260830120037 53 0 0.0 3.0 0.00 0.00 0.00 81 1012.0
20260830115520 53 0 0.0 3.0 0.00 0.00 0.00 81 1012.0
20260830115017 54 70 2.0 3.0 0.00 0.00 0.00 80 1011.9
20260830114554 54 47 0.0 2.0 0.00 0.00 0.00 79 1012.0
20260830114018 54 0 0.0 0.0 0.00 0.00 0.00 80 1011.9
20260830113520 54 0 0.0 0.0 0.00 0.00 0.00 80 1011.8
20260830113035 54 0 0.0 2.0 0.00 0.00 0.00 80 1012.0
20260830112519 55 0 0.0 2.0 0.00 0.00 0.00 80 1011.9
20260830112017 55 0 1.0 2.0 0.00 0.00 0.00 79 1011.9
20260830111536 55 34 1.0 2.0 0.00 0.00 0.00 79 1011.9
20260830111018 55 75 1.0 3.0 0.00 0.00 0.00 79 1011.9
20260830110519 55 75 0.0 3.0 0.00 0.00 0.00 77 1011.8
20260830110039 55 76 1.0 3.0 0.00 0.00 0.00 77 1011.9
20260830105519 55 0 0.0 3.0 0.00 0.00 0.00 77 1011.8
20260830105017 55 0 0.0 3.0 0.00 0.00 0.00 78 1011.7
20260830104542 56 0 0.0 3.0 0.00 0.00 0.00 77 1011.7
20260830104019 56 0 0.0 1.0 0.00 0.00 0.00 77 1011.7
20260830103518 56 0 0.0 3.0 0.00 0.00 0.00 76 1011.8